Location: Unspecified
(48.8656°N, 0.0000°E)
Time: 04:15:08
(UTC+00:00)

Tiangong 2 - Pass Details

Date: 28 May 2019
Orbit: 376 x 388 km, 42.8° (Epoch: 24 June)

Event Time Altitude Azimuth Distance (km) Brightness Sun altitude
Rises 20:57:52 0° 262° (W) 2,238 5.5 -9.1°
Reaches altitude 10° 21:00:32 10° 238° (WSW) 1,383 4.0 -9.3°
Maximum altitude 21:02:23 15° 201° (SSW) 1,130 3.2 -9.5°
Enters shadow 21:03:51 12° 170° (S) 1,291 3.2 -9.7°
